EW7304 Weather Reports


Display with metric or nautical units.
time (UTC)temp
F
wind
direction
speed
MPH
gust
MPH
rain 1hr
in
rain 24hr
in
rain mn
in
humidity
%
barometer
mb
20260508120028 67 94 0.0 1.0 0.00 0.00 0.00 96 1012.7
20260508114527 67 79 0.0 3.0 0.00 0.00 0.00 95 1012.6
20260508113026 68 13 0.0 1.0 0.00 0.00 0.00 96 1012.9
20260508111524 68 103 0.0 1.0 0.00 0.00 0.00 96 1013.1
20260508110025 68 34 0.0 1.0 0.00 0.00 0.00 96 1013.0
20260508104523 68 347 0.0 3.0 0.00 0.00 0.00 96 1012.4
20260508103021 68 86 0.0 3.0 0.00 0.00 0.00 96 1012.3
20260508101519 69 70 0.0 2.0 0.00 0.00 0.00 96 1012.4
20260508100023 69 96 0.0 2.0 0.00 0.00 0.00 95 1012.4
20260508094514 70 136 0.0 1.0 0.00 0.00 0.00 94 1012.7
20260508093010 71 358 0.0 2.0 0.00 0.00 0.00 93 1012.6
20260508091508 72 77 0.0 2.0 0.00 0.00 0.00 94 1012.7
20260508090007 72 44 0.0 2.0 0.00 0.00 0.00 92 1012.7
20260508084505 73 60 0.0 3.0 0.00 0.00 0.00 91 1012.5
20260508083003 73 81 0.0 2.0 0.00 0.00 0.00 90 1012.7
20260508081500 73 99 0.0 4.0 0.00 0.00 0.00 88 1012.7
20260508080110 74 62 0.0 4.0 0.00 0.00 0.00 87 1012.6
20260508074604 74 61 0.0 2.0 0.00 0.00 0.00 87 1012.5
20260508073057 73 89 0.0 2.0 0.00 0.00 0.00 88 1012.8
20260508071548 73 88 0.0 1.0 0.00 0.00 0.00 87 1013.1
20260508070051 73 129 0.0 1.0 0.00 0.00 0.00 87 1012.9
20260508064555 73 77 0.0 1.0 0.00 0.00 0.00 87 1012.9
20260508063045 73 86 0.0 2.0 0.00 0.00 0.00 86 1012.9
20260508061545 73 89 0.0 1.0 0.00 0.00 0.00 86 1013.2
20260508060043 73 85 0.0 1.0 0.00 0.00 0.00 85 1013.3
20260508054547 73 101 0.0 1.0 0.00 0.00 0.00 86 1013.2
20260508053041 74 89 0.0 5.0 0.00 0.00 0.00 85 1012.6
20260508051539 74 68 0.0 4.0 0.00 0.00 0.00 84 1012.8
20260508050038 73 58 0.0 6.0 0.00 0.00 0.00 85 1012.7
20260508044531 73 80 0.0 4.0 0.00 0.00 0.00 84 1012.7
20260508043029 74 93 0.0 3.0 0.00 0.00 0.00 83 1012.9
20260508041528 74 69 0.0 3.0 0.00 0.00 0.00 82 1013.4
20260508040041 75 75 0.0 3.0 0.00 0.00 0.00 81 1014.0
20260508034538 75 65 0.0 5.0 0.00 0.00 0.00 81 1014.2
20260508033028 75 80 0.0 2.0 0.00 0.00 0.00 80 1014.0
20260508031531 75 100 0.0 2.0 0.00 0.00 0.00 79 1013.9
20260508030026 75 89 0.0 3.0 0.00 0.00 0.00 79 1013.7
20260508024527 75 80 0.0 3.0 0.00 0.00 0.00 78 1013.9
20260508023024 76 67 0.0 2.0 0.00 0.00 0.00 78 1013.7
20260508021525 75 94 0.0 1.0 0.00 0.00 0.00 78 1013.7
20260508020024 76 92 0.0 1.0 0.00 0.00 0.00 78 1013.4
20260508014523 76 356 0.0 1.0 0.00 0.00 0.00 78 1013.7
20260508013023 76 70 0.0 2.0 0.00 0.00 0.00 79 1013.6
20260508011522 76 14 0.0 3.0 0.00 0.00 0.00 79 1013.5
20260508010022 76 354 0.0 4.0 0.00 0.00 0.00 80 1013.4
20260508004525 76 108 0.0 1.0 0.00 0.00 0.00 81 1013.2
20260508003020 76 54 0.0 1.0 0.00 0.00 0.00 80 1013.3
20260508001519 76 101 0.0 3.0 0.00 0.00 0.00 80 1013.4
20260508000019 77 72 1.0 4.0 0.00 0.00 0.00 79 1013.3
20260507234529 77 81 0.0 4.0 0.00 0.00 0.00 79 1013.0
20260507233021 77 75 0.0 6.0 0.00 0.00 0.00 78 1013.0
20260507231517 78 118 0.0 3.0 0.00 0.00 0.00 78 1013.0
20260507230018 78 91 0.0 3.0 0.00 0.00 0.00 77 1013.2
20260507224516 78 86 1.0 4.0 0.00 0.00 0.00 77 1013.1
20260507223015 79 343 0.0 4.0 0.00 0.00 0.00 76 1012.9
20260507221513 78 48 0.0 3.0 0.00 0.00 0.00 77 1013.1
20260507220012 78 105 0.0 4.0 0.00 0.00 0.00 77 1013.2
20260507214511 78 83 0.0 2.0 0.00 0.00 0.00 77 1013.1
20260507213016 78 79 1.0 4.0 0.00 0.00 0.00 77 1013.1
20260507211509 77 325 0.0 3.0 0.00 0.00 0.00 77 1013.4
20260507210009 77 338 1.0 4.0 0.00 0.00 0.00 77 1013.5
20260507204505 76 103 1.0 5.0 0.00 0.00 0.00 77 1013.8
20260507203003 75 76 1.0 4.0 0.00 0.00 0.00 78 1013.9
20260507201505 75 74 0.0 2.0 0.00 0.00 0.00 78 1014.2
20260507200002 75 349 1.0 3.0 0.00 0.00 0.00 78 1014.4
20260507194502 75 82 0.0 3.0 0.00 0.00 0.00 78 1014.4
20260507193100 75 96 1.0 5.0 0.00 0.00 0.00 78 1014.6
20260507191604 75 73 0.0 5.0 0.00 0.00 0.00 77 1014.7
20260507190158 75 335 0.0 5.0 0.00 0.00 0.00 77 1014.7
20260507184555 73 320 0.0 3.0 0.00 0.00 0.00 80 1014.9
20260507183113 71 58 0.0 3.0 0.00 0.00 0.00 81 1015.1
20260507181559 71 1 0.0 3.0 0.00 0.00 0.00 81 1015.1
20260507180055 69 314 0.0 3.0 0.00 0.00 0.00 83 1015.5
20260507174602 68 79 0.0 2.0 0.00 0.00 0.00 83 1015.7
20260507173100 68 328 0.0 3.0 0.00 0.00 0.00 84 1015.8
20260507171551 67 319 0.0 3.0 0.00 0.00 0.00 84 1016.0
20260507170050 67 355 1.0 3.0 0.00 0.00 0.00 84 1015.9
20260507164618 66 316 0.0 5.0 0.00 0.00 0.00 85 1015.6
20260507163054 66 112 0.0 4.0 0.00 0.00 0.00 86 1015.9
20260507161555 65 22 0.0 5.0 0.00 0.00 0.00 86 1015.8
20260507160148 65 82 0.0 2.0 0.00 0.00 0.00 87 1015.6
20260507154548 65 354 0.0 2.0 0.00 0.00 0.00 87 1016.1
20260507153045 64 337 0.0 4.0 0.00 0.00 0.00 88 1016.0
20260507151547 65 20 0.0 2.0 0.00 0.00 0.00 87 1015.8
20260507150046 65 80 0.0 2.0 0.00 0.00 0.00 87 1015.7
20260507144542 65 311 0.0 2.0 0.00 0.00 0.00 87 1015.7
20260507143045 65 360 0.0 6.0 0.00 0.00 0.00 86 1015.4
20260507141540 66 4 0.0 4.0 0.00 0.00 0.00 86 1015.4
20260507140043 65 295 0.0 1.0 0.00 0.00 0.00 88 1015.2
20260507134540 65 98 0.0 1.0 0.00 0.00 0.00 88 1015.8
20260507133041 65 60 0.0 2.0 0.00 0.00 0.00 88 1015.8
20260507131539 66 94 0.0 4.0 0.00 0.00 0.00 88 1015.5
20260507130039 66 8 0.0 1.0 0.00 0.00 0.00 88 1015.4
20260507124538 66 6 0.0 2.0 0.00 0.00 0.00 87 1014.9
20260507123028 66 76 0.0 3.0 0.00 0.00 0.00 88 1014.7
20260507121525 67 317 0.0 1.0 0.00 0.00 0.00 88 1014.4